Home > Weather > Oberhausen > Past weeks

Flag for Germany Past Weather in Oberhausen, North Rhine-Westphalia, Germany — Yesterday and Last 2 Weeks

Now
66 °F

Sprinkles. Broken clouds.


Feels Like: 66 °F
Forecast: 54 / 69 °F
Wind: 10 mph from Northwest

Location: Duesseldorf

Current Time: Jul 31, 2016 at 11:49:56 AM

Latest Report: Jul 31, 2016 at 11:20 AM


Visibility: N/A

Pressure: 29.92 "Hg

Humidity: 73%

Dew Point: 57 °F

Location of OberhausenLocation

Past Weather in Oberhausen — Graph

°F

Oberhausen Temperature Yesterday

Maximum temperature yesterday: 77 °F (at 5:20 PM)
Minimum temperature yesterday: 61 °F (at 12:20 AM)
Average temperature yesterday: 67 °F

High & Low Weather Summary for the Past Weeks

 TemperatureHumidityPressure
High95 °F (Jul 20, 4:20 PM)100% (Jul 18, 12:50 AM)30.27 "Hg (Jul 18, 12:50 AM)
Low55 °F (Jul 18, 5:20 AM)30% (Jul 20, 2:50 PM)29.83 "Hg (Jul 20, 5:20 PM)
Average71 °F73%30.04 "Hg
* Reported Jul 16 10:20 AM — Jul 31 10:20 AM, Oberhausen, Weather by CustomWeather, © 2016

Note: Actual official high and low records may vary slightly from our data, if they occured in-between our weather recording intervals... More about our weather records

Advertising

Oberhausen Weather History for the Previous 24 Hours

Scroll right to see more
 ConditionsComfort  
Time TempWeatherWind HumidityBarometerVisibility
10:20 AM
Sun, Jul 31
66 °FBroken clouds.5 mph78%29.92 "HgN/A
9:50 AM64 °FBroken clouds.7 mph83%29.92 "HgN/A
9:20 AM64 °FPartly sunny.5 mph83%29.92 "HgN/A
8:50 AM63 °FPartly sunny.7 mph88%29.92 "Hg6 mi
8:20 AM63 °FBroken clouds.6 mph94%29.92 "Hg5 mi
7:50 AM63 °FBroken clouds.6 mph88%29.92 "Hg5 mi
7:20 AM63 °FBroken clouds.5 mph88%29.92 "HgN/A
6:50 AM61 °FPartly cloudy.3 mph94%29.89 "HgN/A
6:20 AM63 °FClear.5 mph88%29.89 "Hg10 mi
5:50 AM63 °FClear.6 mph88%29.89 "Hg10 mi
5:20 AM63 °FClear.3 mph88%29.89 "Hg10 mi
4:50 AM63 °FPassing clouds.6 mph88%29.89 "HgN/A
4:20 AM63 °FPassing clouds.3 mph88%29.89 "HgN/A
3:50 AM61 °FPassing clouds.5 mph100%29.89 "HgN/A
3:20 AM61 °FPassing clouds.No wind94%29.89 "HgN/A
2:50 AM61 °FFog.2 mph100%29.89 "HgN/A
2:20 AM61 °FPassing clouds.1 mph100%29.89 "HgN/A
1:50 AM63 °FPassing clouds.1 mph94%29.92 "HgN/A
1:20 AM63 °FPassing clouds.1 mph94%29.92 "HgN/A
12:50 AM63 °FPassing clouds.1 mph94%29.92 "HgN/A
12:20 AM63 °FPassing clouds.2 mph94%29.92 "HgN/A
11:50 PM
Sat, Jul 30
64 °FPartly cloudy.3 mph88%29.92 "HgN/A
11:20 PM64 °FPassing clouds.3 mph88%29.92 "HgN/A
10:50 PM64 °FPartly cloudy.2 mph88%29.92 "HgN/A
10:20 PM64 °FScattered clouds.2 mph88%29.92 "HgN/A
9:50 PM66 °FScattered clouds.5 mph83%29.92 "HgN/A
9:20 PM68 °FScattered clouds.5 mph78%29.89 "HgN/A
8:50 PM68 °FBroken clouds.6 mph78%29.89 "HgN/A
8:20 PM70 °FPartly sunny.9 mph64%29.89 "HgN/A
7:50 PM72 °FPartly sunny.9 mph61%29.89 "HgN/A
7:20 PM72 °FPartly sunny.13 mph57%29.89 "HgN/A
6:50 PM72 °FPartly sunny.14 mph61%29.89 "HgN/A
6:20 PM73 °FScattered clouds.10 mph57%29.89 "HgN/A
5:50 PM75 °FScattered clouds.12 mph54%29.89 "HgN/A
5:20 PM77 °FScattered clouds.12 mph51%29.89 "HgN/A
4:50 PM73 °FScattered clouds.7 mph53%29.92 "HgN/A
4:20 PM73 °FScattered clouds.10 mph53%29.92 "HgN/A
3:50 PM75 °FScattered clouds.8 mph54%29.92 "HgN/A
3:20 PM73 °FScattered clouds.8 mph61%29.92 "HgN/A
2:50 PM73 °FScattered clouds.9 mph61%29.92 "HgN/A
2:20 PM72 °FScattered clouds.9 mph65%29.92 "HgN/A
1:50 PM72 °FScattered clouds.10 mph61%29.92 "HgN/A
1:20 PM70 °FScattered clouds.10 mph64%29.92 "HgN/A
12:50 PM72 °FScattered clouds.9 mph61%29.92 "HgN/A
12:20 PM70 °FScattered clouds.7 mph64%29.92 "HgN/A
11:50 AM68 °FPartly sunny.7 mph69%29.92 "HgN/A
11:20 AM66 °FBroken clouds.6 mph73%29.92 "HgN/A
Weather by CustomWeather, © 2016

See weather overviewHow to use our weather pages